Other Public Products
Issued by NWS Grand Forks, ND

Home | Current Version | Previous Version | Graphics & Text | Print | Product List | Glossary On
Versions: 1 2 3 4 5 6 7 8 9 10 11 12 13 14 15 16 17 18 19 20 21 22 23 24 25 26 27 28 29 30 31 32 33 34 35 36 37 38 39 40 41 42 43 44 45 46 47 48 49 50
000
FPUS83 KFGF 171631
OPUFGF
PRAIRIE TO PINES WEATHER ROUNDUP
NATIONAL WEATHER SERVICE EASTERN NORTH DAKOTA/GRAND FORKS ND
1000 AM CST SUN DEC 17 2017

 **SATELLITE DATA USED TO AUGMENT SKY COVER AT AUTOMATED STATIONS**
 *****  WEATHER ACROSS EASTERN NORTH DAKOTA  *****

CITY           SKY/WX    TMP DP  RH WIND       PRES   REMARKS
GRAND FORKS    FAIR      15  12  88 S6        30.00S WCI   6
GRND FORKS AFB FAIR      23  17  78 W12       29.99F WCI  12
GRND FORKS NWS   N/A     18 N/A N/A S5          N/A  WCI  11
BUXTON           N/A     15  15  99 S3          N/A
DEVILS LAKE    FAIR      20  16  84 SW8       29.98S WCI  10
FARGO          FAIR      25  24  96 SW6       30.04F FOG     WCI  18
WAHPETON ARPT  CLOUDY   N/A N/A N/A S6        30.06R
$$

 *****  WEATHER ACROSS CENTRAL AND WESTERN NORTH DAKOTA  *****

CITY           SKY/WX    TMP DP  RH WIND       PRES   REMARKS
JAMESTOWN      FAIR      25  22  88 SW7       30.01F WCI  17
BISMARCK       FAIR      23  20  88 CALM      30.02S
MINOT          FAIR      26  18  71 S10       29.92F WCI  16
MINOT AFB      FAIR      25  19  75 SW9       29.90F WCI  16
GARRISON         N/A     23  20  88 CALM      29.95F
WILLISTON      FAIR      20  18  92 S3        29.91F
DICKINSON      FAIR      23  19  85 S8        29.92F WCI  14
HETTINGER      CLOUDY    23  21  92 S5        29.98F WCI  17
$$

 *****  OTHER OBSERVATIONS NORTHEAST NORTH DAKOTA  *****

CITY           SKY/WX    TMP DP  RH WIND       PRES   REMARKS
WALHALLA       FAIR      23  16  74 SW9G17    29.94R WCI  13
LANGDON        FAIR      12  12 100 SW8       29.94S WCI   1
CAVALIER       FAIR      23  19  86 W7        29.95S WCI  15
GRAFTON        FAIR      18  18 100 SW8       30.00R WCI   7
CANDO          FAIR      19  19 100 SW8       29.97S WCI   9
FORT TOTTEN      N/A     23  17  77 S5        29.95S WCI  17
ROLLA          FAIR      18  16  93 SW15      29.91F WCI   3
RUGBY          FAIR      19  18  93 S6        29.95S WCI  11
 ***** THE ABOVE OBSERVATIONS ARE NON NWS ARE NOT QUALITY
        CONTROLLED AND MAY MIS-REPORT RAIN FOR SNOW...
$$

 *****  OTHER OBSERVATIONS SOUTHEAST NORTH DAKOTA *****

CITY           SKY/WX    TMP DP  RH WIND       PRES   REMARKS
COOPERSTOWN    FAIR      21  19  93 CALM      30.01S
VALLEY CITY    FAIR      23  23 100 CALM      30.03F
OAKES            N/A     28  28 100 NW6       30.03F WCI  22
GWINNER          N/A     30  28  93 W6        30.02F WCI  24
BUFFALO          N/A     22  20  94 S6          N/A  WCI  14
WYNDMERE       NOT AVBL
 ***** THE ABOVE OBSERVATIONS ARE NON NWS ARE NOT QUALITY
       CONTROLLED AND MAY MIS-REPORT RAIN FOR SNOW...
$$

  *****  WEATHER ACROSS NORTHERN MINNESOTA  *****

CITY           SKY/WX    TMP DP  RH WIND       PRES   REMARKS
FLAG ISLAND    FAIR      21  19  93 S5        29.93F WCI  15
WARROAD        FAIR      21  18  86 SW7       29.96S WCI  13
ROSEAU         FAIR      19  16  86 S6        29.96S WCI  11
HALLOCK        FAIR      16  12  86 S8        29.97R WCI   5
THF RVR FALLS  PTSUNNY   19  18  93 SW10      30.01S FOG     WCI   8
HALSTAD        NOT AVBL
FOSSTON        FAIR      21  21 100 SW7       30.01F FOG     WCI  13
BAUDETTE       CLOUDY    25  24  96 S12       29.96S WCI  14
WASKISH        CLOUDY    25  25 100 SW10      29.99F WCI  15
CROOKSTON      FAIR      18  16  93 CALM      30.03F FOG
$$
  *****  WEATHER ACROSS CENTRAL AND WEST MINNESOTA  *****

CITY           SKY/WX    TMP DP  RH WIND       PRES   REMARKS
BEMIDJI        FAIR      24  23  97 SW3       30.00F
PARK RAPIDS    FOG       24  23  96 S6        30.02R VSB 1/2 WCI  17
WADENA         CLOUDY    25  25 100 S8        30.04S FOG     WCI  16
DETROIT LAKES  FAIR      27  27 100 S5        30.02F WCI  21
MOORHEAD       CLOUDY    27  27 100 CALM      30.05S FOG
FERGUS FALLS   CLOUDY    27  27 100 S7        30.09R FOG     WCI  19
ELBOW LAKE     CLOUDY    28  28 100 S6        30.06R FOG     WCI  21
MORRIS MN      CLOUDY    28  27  93 S9        30.07R FOG     WCI  20
STAPLES        CLOUDY    25  25 100 S6        30.05S FOG     WCI  18
WHEATON        CLOUDY    28  27  93 S6        30.08R FOG     WCI  22
$$
  *****  WEATHER ELSEWHERE ACROSS MINNESOTA  *****

CITY           SKY/WX    TMP DP  RH WIND       PRES   REMARKS
DULUTH         FOG       21  21 100 SW3       30.05F VSB 1/2
INTRNTL FALLS  CLOUDY    24  22  91 SW7       29.98F FOG     WCI  16
ELY            CLOUDY    19  19 100 SW5       30.03S WCI  13
CLOQUET        CLOUDY    21  18  86 CALM      30.06S FOG
BRAINERD       CLOUDY    24  22  91 S6        30.06F FOG     WCI  17
HIBBING        CLOUDY    21  20  96 S5        30.04S FOG     WCI  15
ALEXANDRIA     CLOUDY    27  26  96 S3        30.05F FOG
SAINT CLOUD    CLOUDY    22  18  85 N3        30.08F
MINNEAPOLIS    CLOUDY    24  24 100 E5        30.09F FOG     WCI  18
$$

  *****  WEATHER ACROSS SOUTH DAKOTA  *****

CITY           SKY/WX    TMP DP  RH WIND       PRES   REMARKS
SIOUX FALLS    PTSUNNY   28  28 100 N5        30.05S FOG     WCI  23
BROOKINGS      FAIR      27  27 100 CALM      30.05R
WATERTOWN      CLOUDY    30  30 100 CALM      30.03R
HURON          CLOUDY    31  30  96 MISG      30.06S
SISSETON         N/A     33  31  92 S7        30.04S
ABERDEEN       CLOUDY    30  29  96 W3        30.06R
MITCHELL       CLOUDY    32  31  96 NW5       30.07S FOG
PIERRE         CLOUDY    33  31  92 CALM      30.05S
MOBRIDGE       CLOUDY    30  26  85 CALM      30.01F
RAPID CITY     CLOUDY    31  26  82 S9        29.99F WCI  23
$$

  *****  SOME WEATHER IN NEARBY STATES *****

CITY           SKY/WX    TMP DP  RH WIND       PRES   REMARKS
GLASGOW MT     FAIR      25  22  88 S8        29.81F WCI  16
GREAT FALLS MT FAIR      29  14  53 SW25G36   29.79S WCI  14
CHEYENNE WY    PTSUNNY   26  25  96 SW6       29.97S WCI  19
SCOTTSBLUFF NE CLOUDY    32  30  92 SE7       30.02F
OMAHA NE       CLOUDY    31  24  75 NW9       30.05R WCI  23
DES MOINES IA  CLOUDY    33  26  75 E6        30.01S
DAVENPORT IA   FAIR      34  31  88 E10       30.08R FOG
CHICAGO IL     CLOUDY    37  33  85 NE7       30.06R FOG
EAU CLAIRE WI  CLOUDY    26  25  96 SE6       30.08F FOG     WCI  19
LA CROSSE WI   CLOUDY    31  27  85 E5        30.08F
$$

  *****  SOME NATIONAL WEATHER *****

CITY           SKY/WX    TMP DP  RH WIND       PRES   REMARKS
LA GUARDIA NY  CLOUDY    35  21  56 NE5       30.29F
RALEIGH NC     PTSUNNY   44  30  57 SW7       30.29R
ATLANTA GA     CLOUDY    46  32  58 N3        30.29R
NEW ORLEANS LA RAIN      68  68 100 W3        30.11F FOG
OKLAHOMA CITY  CLOUDY    44  42  93 S6        30.05R
ALBUQUERQUE NM FAIR      36  16  44 N3        30.02R
SALT LAKE CITY FAIR      27  24  89 N5        30.21R WCI  22
LOS ANGELES CA FAIR      60  19  20 N13       29.91R
BOISE ID       CLOUDY    24  18  77 E6        30.26R WCI  17
SEATTLE WA     CLOUDY    43  42  97 S8        30.11F
$$

*** WEATHER ACROSS MANITOBA...SASKATCHEWAN AND ONTARIO ***
                ***ONTARIO***

CITY           SKY/WX    TMP DP  RH WIND       PRES   REMARKS
GERALDTON      FRZ DRZL  18  18 100 S8        30.01S FOG     WCI   7
THUNDER BAY    CLOUDY    19  16  86 W3        30.07F
SIOUX LOOKOUT  CLOUDY    21  19  93 SW8G17    29.91S WCI  12
TORONTO        PTSUNNY   12   5  73 N3        30.31S
BIG TROUT LK   FLURRIES   7   3  85 SW9       29.77F WCI  -7
PICKLE LAKE    FLURRIES  16  12  86 SW8       29.85F WCI   5
DRYDEN         CLOUDY    23  21  93 SW14G20   29.91S WCI  11
KENORA         CLOUDY    19  18  93 S13G21    29.90S FOG     WCI   7
$$
                *** MANITOBA***

CITY           SKY/WX    TMP DP  RH WIND       PRES   REMARKS
BRANDON        PTCLDY    12   9  85 SW8       29.89F WCI   1
DAUPHIN        CLEAR     25  18  74 W12G17    29.80F WCI  14
ISLAND LAKE    LGT SNOW  14  10  85 S7        29.70F WCI   4
PILOT MOUND      N/A     10   9  92 SW5         N/A  WCI   2
THE PAS        MOCLDY    18  16  93 S7        29.60F WCI   8
THOMPSON       LGT SNOW   7   3  85 S5        29.61F WCI  -2
WINNIPEG       PTCLDY    18  14  86 SW9       29.91S WCI   6
LYNN LAKE      FLURRIES   7   5  92 SE7       29.46F WCI  -5
CHURCHILL      FLURRIES   1   0  92 CALM      29.64F
GILLAM         LGT SNOW   3   0  85 SW9       29.66F WCI -11
$$
                ***SASKATCHEWAN***

CITY           SKY/WX    TMP DP  RH WIND       PRES   REMARKS
ESTEVAN        PTCLDY    23  18  80 SW13G20   29.85F WCI  11
KINDERSLEY     CLOUDY    23  18  80 SW12      29.58F WCI  12
LLOYDMINSTER   CLOUDY    27  18  69 SW14      29.45F WCI  15
PRINCE ALBERT  MOCLDY    23  18  80 SW12      29.57F WCI  12
REGINA         MOCLDY    23  16  74 S15       29.74F WCI  10
YORKTON        CLEAR     18  14  86 S12       29.75F WCI   5
N. BATTLEFORD  CLOUDY    25  16  68 S10       29.55F W



USA.gov is the U.S. government's official web portal to all federal, state and local government web resources and services.